Date String (YYYY-MM-DD hh:mm:ss) UTC,Instrument flags,absolute air pressure of the measurement (hPa),sample flow rate (lpm),inlet stack bypass flow (lpm),air temperature of the measurement (°C),ambient temperature measured by the external sensor (°C),aerosol sample conditioner tube jacket temperature (°C),OPC LED temperature (°C),internal box temperature (°C),relative humidity of the measurement (%),span deviation,mass concentration of particles derived from Lorenz-Mie calculation of OPC scattering (μg/m³),mass concentration of particles derived from Lorenz-Mie calculation of OPC scattering (μg/m³),mass concentration of particles derived from Lorenz-Mie calculation of OPC scattering (μg/m³)
DateTimeUTC,F1_M11,P_M11,Q1_M11,Q2_M11,T1_M11,T2_M11,T3_M11,T4_M11,T5_M11,U1_M11,ZSPAN_M11,X0_M11,X2_M11,X1_M11
2023-11-24 22:00:00,SystemResetWarning,0830.1,5.00,000.00,018.9,018.1,000.0,027.2,020.0,12.5,0000.0,0007.21,0004.67,0004.40
2023-11-24 22:01:00,SystemResetWarning,0830.1,4.99,000.00,018.9,018.1,000.0,027.2,020.0,12.5,0000.0,0007.39,0004.64,0004.37
2023-11-24 22:02:00,SystemResetWarning,0830.1,4.99,000.00,018.9,018.1,000.0,027.2,020.0,12.5,0000.0,0007.66,0004.62,0004.32
2023-11-24 22:03:00,SystemResetWarning,0830.1,5.00,000.00,018.9,018.1,000.0,027.2,020.0,12.5,0000.0,0007.56,0004.56,0004.27
2023-11-24 22:04:00,SystemResetWarning,0830.1,5.01,000.00,018.9,018.1,000.0,027.2,020.0,12.5,0000.0,0007.47,0004.50,0004.22
2023-11-24 22:05:00,SystemResetWarning,0830.1,5.01,000.00,018.9,018.1,000.0,027.2,020.0,12.5,0000.0,0007.36,0004.43,0004.17
2023-11-24 22:06:00,SystemResetWarning,0830.1,4.99,000.00,018.9,018.1,000.0,027.2,020.0,12.6,0000.0,0007.29,0004.39,0004.14
2023-11-24 22:07:00,SystemResetWarning,0830.1,4.98,000.00,018.9,018.1,000.0,027.2,020.0,12.6,0000.0,0007.31,0004.39,0004.13
2023-11-24 22:08:00,SystemResetWarning,0830.2,5.01,000.00,018.9,018.1,000.0,027.2,020.0,12.6,0000.0,0007.31,0004.39,0004.12
2023-11-24 22:09:00,SystemResetWarning,0830.1,5.01,000.00,018.9,018.1,000.0,027.2,020.0,12.6,0000.0,0007.35,0004.40,0004.11
2023-11-24 22:10:00,SystemResetWarning,0830.2,5.00,000.00,018.9,018.1,000.0,027.2,020.0,12.6,0000.0,0007.26,0004.39,0004.11
2023-11-24 22:11:00,SystemResetWarning,0830.2,5.00,000.00,018.9,018.1,000.0,027.2,020.0,12.6,0000.0,0007.04,0004.38,0004.12
2023-11-24 22:12:00,SystemResetWarning,0830.1,5.00,000.00,018.9,018.1,000.0,027.2,020.0,12.7,0000.0,0006.67,0004.38,0004.13
2023-11-24 22:13:00,SystemResetWarning,0830.2,4.99,000.00,018.9,018.1,000.0,027.2,020.0,12.7,0000.0,0006.22,0004.38,0004.13
2023-11-24 22:14:00,SystemResetWarning,0830.1,4.99,000.00,018.9,018.0,000.0,027.2,020.0,12.7,0000.0,0006.27,0004.40,0004.14
2023-11-24 22:15:00,SystemResetWarning,0830.1,5.00,000.00,018.9,018.0,000.0,027.2,020.0,12.7,0000.0,0006.37,0004.42,0004.15
2023-11-24 22:16:00,SystemResetWarning,0830.1,5.01,000.00,018.9,018.0,000.0,027.2,020.0,12.7,0000.0,0006.55,0004.44,0004.15
2023-11-24 22:17:00,SystemResetWarning,0830.1,5.00,000.00,018.9,018.0,000.0,027.2,020.0,12.7,0000.0,0006.70,0004.46,0004.15
2023-11-24 22:18:00,SystemResetWarning,0830.1,5.00,000.00,018.9,018.0,000.0,027.2,020.0,12.7,0000.0,0006.74,0004.45,0004.14
2023-11-24 22:19:00,SystemResetWarning,0830.1,5.00,000.00,018.9,018.0,000.0,027.2,020.0,12.7,0000.0,0007.06,0004.43,0004.13
2023-11-24 22:20:00,SystemResetWarning,0830.1,5.01,000.00,018.9,018.0,000.0,027.2,020.0,12.7,0000.0,0007.17,0004.41,0004.12
2023-11-24 22:21:00,SystemResetWarning,0830.1,5.00,000.00,018.9,018.0,000.0,027.2,020.0,12.7,0000.0,0007.25,0004.41,0004.11
2023-11-24 22:22:00,SystemResetWarning,0830.1,5.00,000.00,018.9,018.0,000.0,027.2,020.0,12.7,0000.0,0007.30,0004.42,0004.10
2023-11-24 22:23:00,SystemResetWarning,0830.1,4.99,000.00,018.9,018.0,000.0,027.2,020.0,12.7,0000.0,0007.42,0004.44,0004.09
2023-11-24 22:24:00,SystemResetWarning,0830.1,4.99,000.00,018.9,018.0,000.0,027.2,020.0,12.7,0000.0,0007.54,0004.45,0004.08
2023-11-24 22:25:00,SystemResetWarning,0830.1,5.00,000.00,018.9,018.0,000.0,027.2,020.0,12.7,0000.0,0007.60,0004.48,0004.09
2023-11-24 22:26:00,SystemResetWarning,0830.1,5.01,000.00,018.9,018.0,000.0,027.2,020.0,12.7,0000.0,0007.57,0004.48,0004.09
2023-11-24 22:27:00,SystemResetWarning,0830.1,5.00,000.00,018.9,018.0,000.0,027.2,020.0,12.7,0000.0,0007.56,0004.49,0004.12
2023-11-24 22:28:00,SystemResetWarning,0830.1,5.00,000.00,018.9,018.0,000.0,027.2,020.0,12.7,0000.0,0007.54,0004.49,0004.14
2023-11-24 22:29:00,SystemResetWarning,0830.1,4.99,000.00,018.9,018.0,000.0,027.2,020.0,12.7,0000.0,0007.60,0004.53,0004.18
2023-11-24 22:30:00,SystemResetWarning,0830.1,4.99,000.00,018.9,018.0,000.0,027.2,020.0,12.8,0000.0,0007.44,0004.58,0004.24
2023-11-24 22:31:00,SystemResetWarning,0830.1,5.00,000.00,018.9,018.0,000.0,027.2,020.0,12.7,0000.0,0007.35,0004.63,0004.30
2023-11-24 22:32:00,SystemResetWarning,0830.1,5.00,000.00,018.9,018.0,000.0,027.2,020.0,12.8,0000.0,0007.60,0004.66,0004.36
2023-11-24 22:33:00,SystemResetWarning,0830.1,5.00,000.00,018.9,018.0,000.0,027.2,020.0,12.8,0000.0,0007.81,0004.70,0004.42
2023-11-24 22:34:00,SystemResetWarning,0830.1,5.00,000.00,018.9,018.0,000.0,027.2,020.0,12.8,0000.0,0007.74,0004.72,0004.50
2023-11-24 22:35:00,SystemResetWarning,0830.1,5.01,000.00,018.8,018.0,000.0,027.2,020.0,12.8,0000.0,0007.66,0004.77,0004.56
2023-11-24 22:36:00,SystemResetWarning,0830.1,5.00,000.00,018.8,018.0,000.0,027.2,020.0,12.8,0000.0,0007.69,0004.81,0004.62
2023-11-24 22:37:00,SystemResetWarning,0830.1,4.98,000.00,018.8,018.0,000.0,027.2,020.0,12.8,0000.0,0007.81,0004.89,0004.69
2023-11-24 22:38:00,SystemResetWarning,0830.1,5.01,000.00,018.8,018.0,000.0,027.2,020.0,12.7,0000.0,0007.84,0004.96,0004.76
2023-11-24 22:39:00,SystemResetWarning,0830.1,5.00,000.00,018.8,018.0,000.0,027.2,020.0,12.7,0000.0,0007.93,0005.06,0004.85
2023-11-24 22:40:00,SystemResetWarning,0830.1,5.00,000.00,018.8,018.0,000.0,027.2,020.0,12.7,0000.0,0007.98,0005.13,0004.93
2023-11-24 22:41:00,SystemResetWarning,0830.1,5.00,000.00,018.8,018.0,000.0,027.2,020.0,12.6,0000.0,0008.39,0005.18,0004.98
2023-11-24 22:42:00,SystemResetWarning,0830.2,5.00,000.00,018.8,018.0,000.0,027.2,020.0,12.6,0000.0,0008.45,0005.23,0005.03
2023-11-24 22:43:00,SystemResetWarning,0830.1,5.01,000.00,018.8,018.0,000.0,027.2,020.0,12.7,0000.0,0008.28,0005.30,0005.09
2023-11-24 22:44:00,SystemResetWarning,0830.1,5.01,000.00,018.8,018.0,000.0,027.2,020.0,12.6,0000.0,0008.08,0005.35,0005.15
2023-11-24 22:45:00,SystemResetWarning,0830.1,5.00,000.00,018.8,018.0,000.0,027.2,020.0,12.6,0000.0,0008.20,0005.41,0005.18
2023-11-24 22:46:00,SystemResetWarning,0830.1,5.00,000.00,018.8,018.0,000.0,027.2,020.0,12.6,0000.0,0008.31,0005.47,0005.23
2023-11-24 22:47:00,SystemResetWarning,0830.1,4.99,000.00,018.8,018.0,000.0,027.2,020.0,12.6,0000.0,0008.43,0005.51,0005.26
2023-11-24 22:48:00,SystemResetWarning,0830.1,5.00,000.00,018.8,018.0,000.0,027.2,020.0,12.6,0000.0,0008.54,0005.57,0005.31
2023-11-24 22:49:00,SystemResetWarning,0830.2,5.00,000.00,018.8,018.0,000.0,027.2,020.0,12.6,0000.0,0008.62,0005.59,0005.32
2023-11-24 22:50:00,SystemResetWarning,0830.2,5.00,000.00,018.8,018.0,000.0,027.2,020.0,12.6,0000.0,0008.55,0005.54,0005.27
2023-11-24 22:51:00,SystemResetWarning,0830.2,5.00,000.00,018.8,018.0,000.0,027.2,020.0,12.6,0000.0,0008.43,0005.46,0005.20
2023-11-24 22:52:00,SystemResetWarning,0830.2,5.00,000.00,018.8,018.0,000.0,027.2,020.0,12.6,0000.0,0008.05,0005.42,0005.13
2023-11-24 22:53:00,SystemResetWarning,0830.2,5.00,000.00,018.8,018.0,000.0,027.2,020.0,12.6,0000.0,0008.02,0005.34,0005.04
2023-11-24 22:54:00,SystemResetWarning,0830.2,5.00,000.00,018.8,018.0,000.0,027.2,020.0,12.6,0000.0,0008.06,0005.24,0004.92
2023-11-24 22:55:00,SystemResetWarning,0830.1,4.99,000.00,018.8,018.0,000.0,027.2,020.0,12.6,0000.0,0007.99,0005.13,0004.80
2023-11-24 22:56:00,SystemResetWarning,0830.1,4.99,000.00,018.8,018.0,000.0,027.2,020.0,12.7,0000.0,0007.95,0005.04,0004.70
2023-11-24 22:57:00,SystemResetWarning,0830.1,5.00,000.00,018.8,018.0,000.0,027.2,020.0,12.7,0000.0,0007.86,0004.90,0004.57
2023-11-24 22:58:00,SystemResetWarning,0830.1,5.00,000.00,018.8,017.9,000.0,027.2,020.0,12.7,0000.0,0007.65,0004.75,0004.44
2023-11-24 22:59:00,SystemResetWarning,0830.1,5.01,000.00,018.8,017.9,000.0,027.2,020.0,12.6,0000.0,0007.67,0004.61,0004.30
